TimeCDT,TemperatureF,Dew PointF,Humidity,Sea Level PressureIn,VisibilityMPH,Wind Direction,Wind SpeedMPH,Gust SpeedMPH,PrecipitationIn,Events,Conditions,WindDirDegrees,DateUTC
12:43 AM,64.4,64.4,100,30.01,2.5,Calm,Calm,-,N/A,,Clear,0,2012-10-15 05:43:00
12:44 AM,64.4,64.4,100,30.01,2.0,Calm,Calm,-,N/A,,Clear,0,2012-10-15 05:44:00
12:45 AM,66.2,64.4,94,30.01,1.5,Calm,Calm,-,N/A,,Clear,0,2012-10-15 05:45:00
12:47 AM,66.2,64.4,94,30.01,1.2,Calm,Calm,-,N/A,,Clear,0,2012-10-15 05:47:00
12:48 AM,66.2,64.4,94,30.01,1.0,Calm,Calm,-,N/A,,Clear,0,2012-10-15 05:48:00
12:54 AM,64.4,62.6,94,30.01,1.2,Calm,Calm,-,N/A,,Clear,0,2012-10-15 05:54:00
12:55 AM,64.8,63.0,94,30.01,1.0,Calm,Calm,-,N/A,,Clear,0,2012-10-15 05:55:00
12:57 AM,64.4,62.6,94,30.01,2.0,Calm,Calm,-,N/A,,Clear,0,2012-10-15 05:57:00
12:58 AM,64.4,62.6,94,30.01,2.5,Calm,Calm,-,N/A,,Clear,0,2012-10-15 05:58:00
12:59 AM,64.4,62.6,94,30.01,4.0,Calm,Calm,-,N/A,,Clear,0,2012-10-15 05:59:00
1:55 AM,66.4,66.2,99,29.99,5.0,Calm,Calm,-,N/A,,Clear,0,2012-10-15 06:55:00
2:27 AM,66.2,66.2,100,29.98,2.5,Calm,Calm,-,N/A,,Clear,0,2012-10-15 07:27:00
2:28 AM,66.2,66.2,100,29.98,2.0,Calm,Calm,-,N/A,,Clear,0,2012-10-15 07:28:00
2:29 AM,66.2,66.2,100,29.98,1.5,Calm,Calm,-,N/A,,Clear,0,2012-10-15 07:29:00
2:30 AM,66.2,66.2,100,29.98,1.2,Calm,Calm,-,N/A,,Clear,0,2012-10-15 07:30:00
2:31 AM,66.2,64.4,94,29.98,1.0,Calm,Calm,-,N/A,,Clear,0,2012-10-15 07:31:00
2:33 AM,66.2,64.4,94,29.98,0.8,Calm,Calm,-,N/A,,Clear,0,2012-10-15 07:33:00
2:51 AM,64.4,64.4,100,29.98,1.0,Calm,Calm,-,N/A,,Clear,0,2012-10-15 07:51:00
2:54 AM,64.4,64.4,100,29.98,1.2,Calm,Calm,-,N/A,,Clear,0,2012-10-15 07:54:00
2:55 AM,65.1,64.8,99,29.98,1.0,Calm,Calm,-,N/A,,Clear,0,2012-10-15 07:55:00
2:57 AM,64.4,64.4,100,29.98,1.5,Calm,Calm,-,N/A,,Clear,0,2012-10-15 07:57:00
3:01 AM,64.4,64.4,100,29.98,2.0,Calm,Calm,-,N/A,,Clear,0,2012-10-15 08:01:00
3:02 AM,64.4,64.4,100,29.98,2.5,Calm,Calm,-,N/A,,Clear,0,2012-10-15 08:02:00
3:03 AM,64.4,64.4,100,29.98,3.0,Calm,Calm,-,N/A,,Clear,0,2012-10-15 08:03:00
3:21 AM,64.4,64.4,100,29.98,2.5,Calm,Calm,-,N/A,,Clear,0,2012-10-15 08:21:00
3:22 AM,64.4,64.4,100,29.98,2.0,Calm,Calm,-,N/A,,Clear,0,2012-10-15 08:22:00
3:23 AM,64.4,64.4,100,29.98,1.8,Calm,Calm,-,N/A,,Clear,0,2012-10-15 08:23:00
3:25 AM,64.4,64.4,100,29.98,1.2,Calm,Calm,-,N/A,,Clear,0,2012-10-15 08:25:00
3:26 AM,64.4,64.4,100,29.98,1.0,Calm,Calm,-,N/A,,Clear,0,2012-10-15 08:26:00
3:28 AM,64.4,64.4,100,29.98,0.8,Calm,Calm,-,N/A,,Clear,0,2012-10-15 08:28:00
3:32 AM,64.4,64.4,100,29.98,0.5,Calm,Calm,-,N/A,Fog,Fog,0,2012-10-15 08:32:00
3:34 AM,64.4,64.4,100,29.98,0.8,Calm,Calm,-,N/A,,Clear,0,2012-10-15 08:34:00
3:49 AM,64.4,62.6,94,29.97,1.0,Calm,Calm,-,N/A,,Clear,0,2012-10-15 08:49:00
3:50 AM,64.4,62.6,94,29.97,1.2,Calm,Calm,-,N/A,,Clear,0,2012-10-15 08:50:00
3:55 AM,63.3,63.0,99,29.97,1.2,Calm,Calm,-,N/A,,Clear,0,2012-10-15 08:55:00
3:56 AM,62.6,62.6,100,29.97,2.5,Calm,Calm,-,N/A,,Clear,0,2012-10-15 08:56:00
3:57 AM,62.6,62.6,100,29.97,4.0,Calm,Calm,-,N/A,,Clear,0,2012-10-15 08:57:00
4:55 AM,63.7,62.8,97,29.97,10.0,Calm,Calm,-,N/A,,Clear,0,2012-10-15 09:55:00
5:04 AM,62.6,60.8,94,29.97,2.5,Calm,Calm,-,N/A,,Clear,0,2012-10-15 10:04:00
5:05 AM,62.6,60.8,94,29.97,2.0,Calm,Calm,-,N/A,,Clear,0,2012-10-15 10:05:00
5:07 AM,62.6,60.8,94,29.97,1.8,Calm,Calm,-,N/A,,Clear,0,2012-10-15 10:07:00
5:10 AM,62.6,60.8,94,29.97,1.2,Calm,Calm,-,N/A,,Clear,0,2012-10-15 10:10:00
5:13 AM,62.6,62.6,100,29.97,1.5,Calm,Calm,-,N/A,,Clear,0,2012-10-15 10:13:00
5:15 AM,62.6,62.6,100,29.97,2.0,Calm,Calm,-,N/A,,Clear,0,2012-10-15 10:15:00
5:16 AM,62.6,62.6,100,29.97,2.5,Calm,Calm,-,N/A,,Clear,0,2012-10-15 10:16:00
5:18 AM,62.6,62.6,100,29.97,3.0,Calm,Calm,-,N/A,,Clear,0,2012-10-15 10:18:00
5:55 AM,62.1,60.6,95,29.97,10.0,South,3.5,-,N/A,,Clear,170,2012-10-15 10:55:00
6:55 AM,70.7,69.3,95,29.99,10.0,WSW,3.5,-,N/A,,Partly Cloudy,250,2012-10-15 11:55:00
7:55 AM,74.1,71.2,91,29.98,10.0,West,6.9,-,N/A,,Partly Cloudy,260,2012-10-15 12:55:00
8:55 AM,73.8,69.3,86,29.99,10.0,West,8.1,-,N/A,,Mostly Cloudy,280,2012-10-15 13:55:00
9:55 AM,76.5,68.5,76,29.99,10.0,West,9.2,-,N/A,,Mostly Cloudy,280,2012-10-15 14:55:00
10:55 AM,80.1,68.7,68,29.98,10.0,NW,11.5,-,N/A,,Mostly Cloudy,320,2012-10-15 15:55:00
11:55 AM,81.3,67.6,63,29.96,10.0,WNW,6.9,-,N/A,,Scattered Clouds,300,2012-10-15 16:55:00
12:55 PM,83.7,66.2,56,29.93,10.0,NW,8.1,-,N/A,,Scattered Clouds,310,2012-10-15 17:55:00
1:55 PM,83.7,63.5,51,29.90,10.0,NW,6.9,-,N/A,,Mostly Cloudy,320,2012-10-15 18:55:00
2:55 PM,85.6,60.6,43,29.88,10.0,NW,12.7,-,N/A,,Scattered Clouds,310,2012-10-15 19:55:00
3:55 PM,84.4,56.7,39,29.88,10.0,NW,10.4,-,N/A,,Partly Cloudy,310,2012-10-15 20:55:00
4:55 PM,82.0,59.0,45,29.88,10.0,North,10.4,-,N/A,,Partly Cloudy,350,2012-10-15 21:55:00
5:55 PM,78.4,59.4,52,29.89,10.0,NNW,6.9,-,N/A,,Partly Cloudy,340,2012-10-15 22:55:00
6:55 PM,72.3,57.9,60,29.91,10.0,NNW,5.8,-,N/A,,Partly Cloudy,330,2012-10-15 23:55:00
7:55 PM,69.4,56.8,64,29.92,10.0,NNW,4.6,-,N/A,,Clear,340,2012-10-16 00:55:00
8:55 PM,67.6,54.7,63,29.94,10.0,NNW,5.8,-,N/A,,Clear,340,2012-10-16 01:55:00
9:55 PM,64.6,54.7,70,29.95,10.0,NNW,2.3,-,N/A,,Clear,330,2012-10-16 02:55:00
10:55 PM,62.4,54.0,74,29.96,10.0,North,5.8,-,N/A,,Clear,350,2012-10-16 03:55:00
11:55 PM,59.4,53.1,80,29.96,10.0,NNW,4.6,-,N/A,,Clear,330,2012-10-16 04:55:00